Hourly Data Report for June 16, 2021

BORDEN AWOS
ONTARIO
Current Station Operator: DND

44°16'20.000" N
79°54'42.000" W
222.50 m
611B002
71534
YBN

Download Data

Hourly Data (June 2021)
Hourly Data Report for June 16, 2021
TIME
LST
Temp Definition
°C
Dew Point Definition
°C
Rel Hum Definition
%
Precip. Amount Definition
mm

Wind Dir Definition
10's deg

Wind Spd Definition
km/h
Visibility Definition
km
Stn Press Definition
kPa
Hmdx Definition


Wind Chill Definition


Weather Definition


00:00 8.5 4.0 73   1 7 14.5 98.98     LegendNANA
01:00 4.9 2.3 83   34 4 14.5 99.01     LegendNANA
02:00 3.6 1.4 86   34 6 14.5 99.04     LegendNANA
03:00 3.7 1.2 84   28 7 14.5 99.07     LegendNANA
04:00 2.0 0.3 89     0 14.5 99.09     LegendNANA
05:00 2.8 0.8 87   29 6 14.5 99.12     LegendNANA
06:00 9.5 4.8 73   30 6 14.5 99.14     LegendNANA
07:00 13.2 5.0 58   35 9 14.5 99.14     LegendNANA
08:00 14.8 3.5 47   36 13 14.5 99.13     LegendNANA
09:00 16.0 4.2 45   34 26 14.5 99.17     LegendNANA
10:00 16.1 4.2 45   34 19 14.5 99.16     LegendNANA
11:00 16.6 3.0 40   31 26 14.5 99.19     LegendNANA
12:00 17.5 1.7 35   35 28 14.5 99.12     LegendNANA
13:00 16.9 1.0 34   34 28 14.5 99.10     LegendNANA
14:00 18.1 -0.4 29   30 28 14.5 99.07     LegendNANA
15:00 17.7 -0.3 30   33 22 14.5 99.05     LegendNANA
16:00 17.9 1.1 32   34 22 14.5 99.02     LegendNANA
17:00 18.2 0.6 31   30 26 14.5 98.98     LegendNANA
18:00 17.4 1.1 33   33 19 14.5 98.95     LegendNANA
19:00 16.5 0.6 34   34 9 14.5 98.95     LegendNANA
20:00 12.4 1.8 48     0 14.5 98.93     LegendNANA
21:00 8.7 1.4 60   23 4 14.5 98.96     LegendNANA
22:00 5.8 0.7 70     0 14.5 99.01     LegendNANA
23:00 5.2 0.9 74     0 14.5 99.01     LegendNANA

Notes on Data Quality.

Legend

  • E = Estimated
  • M = Missing
  • NA = Not Available*
  • [empty] = Indicates an unobserved value
Date modified: